Regional Weather Roundup
Issued by NWS

Home | Current Version | Previous Version | Text Only | Print | Product List | Glossary On
Versions: 1 2 3 4 5 6 7 8 9 10 11 12 13 14 15 16 17 18 19 20 21 22 23 24 25 26 27 28 29 30 31 32 33 34 35 36 37 38 39 40 41 42 43 44 45 46 47 48 49 50
519
ASUS45 KBOU 101907
RWRCO

WEATHER ROUNDUP FOR COLORADO
NATIONAL WEATHER SERVICE DENVER/BOULDER CO
1200 PM MST SAT DEC 10 2016

NOTE: "FAIR" INDICATES FEW OR NO CLOUDS BELOW 12000 FEET WITH NO
SIGNIFICANT WEATHER AND/OR OBSTRUCTIONS TO VISIBILITY.

COZ001>005-013-030-031-102000-
...NORTHWEST COLORADO...

CITY           SKY/WX    TMP DP  RH WIND       PRES   REMARKS
CRAIG          LGT RAIN  43  28  55 SW21G30   29.93F
HAYDEN         CLOUDY    37  25  60 W14G21    29.93F
MEEKER         LGT RAIN  40  32  73 SW17G23   29.98F
MOUNT WERNER   NOT AVBL
STEAMBOAT SPGS CLOUDY    30  26  86 SE3       29.94F
WALDEN           N/A     36  25  64 SW22G33   29.91F
$$

COZ006>008-011-102000-
...WEST CENTRAL VALLEYS...

CITY           SKY/WX    TMP DP  RH WIND       PRES   REMARKS
GRAND JUNCTION PTSUNNY   33  24  69 CALM      30.06F
MONTROSE       FAIR      42  28  57 SE3       30.06F
EAGLE          CLOUDY    37  27  65 CALM      30.01F
RIFLE          CLOUDY    29  23  78 CALM      30.07F
DELTA          FAIR      41  26  55 CALM      30.06
NUCLA          FAIR      41  27  56 CALM      30.12F
$$

COZ017>023-064>068-102000-
...SOUTHWEST COLORADO...

CITY           SKY/WX    TMP DP  RH WIND       PRES   REMARKS
DURANGO        FAIR      44  24  45 SE8       30.15F
CORTEZ         FAIR      47  29  49 S8        30.14F
PAGOSA SPRINGS FAIR      42  23  46 S3        30.17F
TELLURIDE      FAIR      48  10  21 SW8G25    30.14F
WOLF CREEK PAS FAIR      25  19  80 SW25G36   30.24F WCI   9
$$

COZ009-010-012-014-032>034-037-058>063-102000-
...CENTRAL COLORADO...

CITY           SKY/WX    TMP DP  RH WIND       PRES   REMARKS
ASPEN          CLOUDY    39  25  57 N8        30.00R
BUENA VISTA    FAIR      53  13  20 SW23G33   29.95F
COPPER MTN     NOT AVBL
BERTHOUD PASS  CLOUDY    21  10  63 W21       30.00F HAZE    WCI   6
COTTONWOOD PAS FAIR      43  12  28 W17G30    29.99F
GUNNISON       FAIR      18  16  92 CALM      30.11F
KREMMLING      CLOUDY    46  27  46 W24G32    29.93F
LEADVILLE      CLOUDY    39  12  33 W16G26    29.99F
MONARCH PASS   FAIR      27  16  63 SW36G48   30.19F WCI   9
SALIDA         FAIR      51  17  26 SW20G28   30.04F
SUNLIGHT       LGT SNOW  27  23  86 SW20G35   30.09F WCI  13
WILKERSON PASS FAIR      36  12  38 SW15G29   30.04F
$$

COZ069>075-102000-
...SAN LUIS VALLEY/SANGRE DE CRISTO MOUNTAINS...

CITY           SKY/WX    TMP DP  RH WIND       PRES   REMARKS
ALAMOSA        FAIR      43  24  47 VRB3      30.07F
LA VETA PASS   FAIR      41  18  38 NE20G41   30.05F
SAGUACHE       FAIR      37  21  52 S3        30.09F
$$

COZ035-036-038>040-102000-
...NORTHERN COLORADO FRONT RANGE...

CITY           SKY/WX    TMP DP  RH WIND       PRES   REMARKS
DENVER INTL AP PTSUNNY   45  29  53 VRB5      29.79F
DMNS CITY PARK   N/A     42  26  52 SE10      29.76F
AURORA         PTSUNNY   50  31  49 NE3       29.79F
FRONT RANGE AP PTSUNNY   50  32  50 CALM      29.80
ERIE MUNI ARPT FAIR      32  25  75 S3        29.79F
BOULDER MUN AP FAIR      54  27  35 SW17G37   29.74F
CENTENNIAL     PTSUNNY   55  24  30 N6        29.79F
BROOMFIELD     PTSUNNY   55  21  26 NW15      29.80F
FORT COLLINS   FAIR      30  23  74 CALM      29.80F
LONGMONT       NOT AVBL
$$

COZ041-046-047-076>085-087-088-102000-
...PIKES PEAK/PALMER DIVIDE AND SOUTHERN FOOTHILLS...

CITY           SKY/WX    TMP DP  RH WIND       PRES   REMARKS
COLO. SPRINGS  PTSUNNY   49  20  31 E9        29.85F
A. F. ACADEMY  FAIR      47  22  37 VRB7G28   29.82F
SCHRIEVER AFB  NOT AVBL
ELLICOTT       FAIR     N/A N/A N/A SW12      29.84F
FALCON         FAIR      47  19  32 SE9       29.87F
FORT CARSON    FAIR      49  22  34 N7        29.82F
LIMON          FAIR      60  19  20 S15       29.81F
MONUMENT HILL  FAIR      54  16  22 W17G25    29.85F
TRINIDAD       FAIR      66  13  12 W12       29.87F
$$

COZ042>045-048>051-090-091-102000-
...NORTHEAST COLORADO...

CITY           SKY/WX    TMP DP  RH WIND       PRES   REMARKS
GREELEY ARPT   FAIR      28  21  75 VRB3      29.82F
AKRON          FAIR      36  25  64 NW8       29.79F
BURLINGTON     FAIR      51  22  31 S9        29.83F
WRAY           NOT AVBL
STERLING       FAIR      28  21  74 CALM      29.81F
HOLYOKE        FAIR      32  27  80 SE8       29.83F WCI  25
FORT MORGAN    FAIR      31  23  71 SW3       29.81F
$$

COZ086-089-092>099-102000-
...SOUTHEAST COLORADO...

CITY           SKY/WX    TMP DP  RH WIND       PRES   REMARKS
PUEBLO         FAIR      46  22  38 CALM      29.82F
LA JUNTA       FAIR      46  20  35 CALM      29.85F
LAMAR          FAIR      40  20  44 NE7       29.86F
SPRINGFIELD      N/A     61  24  24 S16       29.85F
$$




USA.gov is the U.S. government's official web portal to all federal, state and local government web resources and services.